Location: Unnamed
(42.1164°N, 2.7652°E)
Time: 21:24:28
(UTC+02:00)

ISS - Pass Details

Date: 13 May 2021
Orbit: 417 x 422 km, 51.6° (Epoch: 14 June)

Event Time Altitude Azimuth Distance (km) Brightness Sun altitude
Exits shadow 03:36:47 - 310° (NW) 2,004 -0.2 -24.2°
Reaches altitude 10° 03:38:20 10° 324° (NW) 1,508 -0.7 -24.1°
Maximum altitude 03:40:46 18° 10° (N) 1,105 -0.9 -23.9°
Drops below altitude 10° 03:43:13 10° 57° (ENE) 1,508 -0.1 -23.6°
Sets 03:45:47 0° 77° (ENE) 2,373 0.7 -23.4°
